• In Netherlands
  • List of Countries
  • For 7 days
  • Water Temperature
  • Satellite Maps
  • Weather Map
  • Weather Widgets
  • user-avatar
    Login

    Hourly Weather Santa Fe

    Today, 25 April, Tuesday

    Time Temperature Precipitation Wind Pressure Humidity
    00:00 +18°C° 0 mm 3 mps 754 mmHg 69%
    01:00 +17°C° 0 mm 2 mps 754 mmHg 70%
    02:00 +17°C° 0 mm 2 mps 754 mmHg 72%
    03:00 +17°C° 0 mm 2 mps 754 mmHg 74%
    04:00 +16°C° 0 mm 2 mps 753 mmHg 77%
    05:00 +16°C° 0 mm 2 mps 753 mmHg 79%
    06:00 +17°C° 0 mm 2 mps 753 mmHg 78%
    07:00 +18°C° 0 mm 2 mps 753 mmHg 77%
    08:00 +19°C° 0 mm 2 mps 753 mmHg 76%
    09:00 +21°C° 0.2 mm 2 mps 753 mmHg 71%
    10:00 +24°C° 0.2 mm 2 mps 753 mmHg 67%
    11:00 +26°C° 0.2 mm 2 mps 753 mmHg 62%
    12:00 +25°C° 0.6 mm 4 mps 753 mmHg 64%
    13:00 +23°C° 0.6 mm 6 mps 753 mmHg 66%
    14:00 +22°C° 0.6 mm 9 mps 752 mmHg 68%
    15:00 +20°C° 0.2 mm 8 mps 753 mmHg 73%
    16:00 +17°C° 0.2 mm 7 mps 753 mmHg 78%
    17:00 +15°C° 0.2 mm 7 mps 754 mmHg 83%
    18:00 +15°C° 0 mm 7 mps 754 mmHg 85%
    19:00 +14°C° 0 mm 7 mps 755 mmHg 86%
    20:00 +12°C° 0 mm 7 mps 756 mmHg 87%
    21:00 +13°C° 0 mm 6 mps 756 mmHg 88%
    22:00 +11°C° 0 mm 6 mps 757 mmHg 89%
    23:00 +12°C° 0 mm 5 mps 758 mmHg 89%

    Tomorrow, 26 April, Wednesday

    Time Temperature Precipitation Wind Pressure Humidity
    00:00 +12°C° 0 mm 5 mps 758 mmHg 85%
    01:00 +12°C° 0 mm 5 mps 758 mmHg 81%
    02:00 +11°C° 0 mm 6 mps 758 mmHg 76%
    03:00 +10°C° 0 mm 6 mps 759 mmHg 71%
    04:00 +10°C° 0 mm 6 mps 759 mmHg 65%
    05:00 +9°C° 0 mm 7 mps 759 mmHg 60%
    06:00 +10°C° 0 mm 7 mps 759 mmHg 56%
    07:00 +10°C° 0 mm 7 mps 760 mmHg 53%
    08:00 +10°C° 0 mm 7 mps 761 mmHg 50%
    09:00 +12°C° 0 mm 7 mps 761 mmHg 44%
    10:00 +15°C° 0 mm 8 mps 762 mmHg 38%
    11:00 +17°C° 0 mm 8 mps 762 mmHg 32%
    12:00 +17°C° 0 mm 8 mps 762 mmHg 31%
    13:00 +18°C° 0 mm 7 mps 761 mmHg 31%
    14:00 +18°C° 0 mm 7 mps 761 mmHg 30%
    15:00 +17°C° 0 mm 6 mps 761 mmHg 34%
    16:00 +16°C° 0 mm 5 mps 761 mmHg 38%
    17:00 +17°C° 0 mm 4 mps 761 mmHg 42%
    18:00 +14°C° 0 mm 3 mps 761 mmHg 46%
    19:00 +13°C° 0 mm 3 mps 761 mmHg 50%
    20:00 +11°C° 0 mm 3 mps 762 mmHg 54%
    21:00 +11°C° 0 mm 3 mps 762 mmHg 55%
    22:00 +11°C° 0 mm 3 mps 762 mmHg 57%
    23:00 +11°C° 0 mm 3 mps 763 mmHg 58%

    Day after tomorrow, 27 April, Thursday

    Time Temperature Precipitation Wind Pressure Humidity
    00:00 +10°C° 0 mm 3 mps 763 mmHg 59%
    01:00 +10°C° 0 mm 3 mps 763 mmHg 60%
    02:00 +10°C° 0 mm 3 mps 763 mmHg 60%
    03:00 +10°C° 0 mm 3 mps 763 mmHg 60%
    04:00 +9°C° 0 mm 3 mps 763 mmHg 60%
    05:00 +9°C° 0 mm 3 mps 763 mmHg 60%
    06:00 +10°C° 0 mm 3 mps 763 mmHg 57%
    07:00 +11°C° 0 mm 3 mps 764 mmHg 55%
    08:00 +12°C° 0 mm 3 mps 764 mmHg 53%
    09:00 +16°C° 0 mm 3 mps 764 mmHg 47%
    10:00 +18°C° 0 mm 3 mps 764 mmHg 40%
    11:00 +21°C° 0 mm 3 mps 764 mmHg 34%
    12:00 +22°C° 0 mm 3 mps 763 mmHg 32%
    13:00 +22°C° 0 mm 3 mps 763 mmHg 29%
    14:00 +24°C° 0 mm 3 mps 762 mmHg 27%
    15:00 +23°C° 0 mm 2 mps 761 mmHg 32%
    16:00 +20°C° 0 mm 2 mps 761 mmHg 36%
    17:00 +19°C° 0 mm 2 mps 761 mmHg 41%
    18:00 +18°C° 0 mm 2 mps 761 mmHg 41%
    19:00 +16°C° 0 mm 3 mps 761 mmHg 42%
    20:00 +14°C° 0 mm 3 mps 761 mmHg 42%
    21:00 +14°C° 0 mm 3 mps 762 mmHg 43%
    22:00 +13°C° 0 mm 3 mps 762 mmHg 45%
    23:00 +13°C° 0 mm 3 mps 763 mmHg 46%

    28 April, Friday

    Time Temperature Precipitation Wind Pressure Humidity
    00:00 +12°C° 0 mm 3 mps 763 mmHg 47%
    01:00 +12°C° 0 mm 3 mps 763 mmHg 49%
    02:00 +11°C° 0 mm 3 mps 763 mmHg 50%
    03:00 +11°C° 0 mm 3 mps 763 mmHg 52%
    04:00 +11°C° 0 mm 3 mps 763 mmHg 54%
    05:00 +10°C° 0 mm 3 mps 764 mmHg 56%
    06:00 +11°C° 0 mm 3 mps 764 mmHg 55%
    07:00 +12°C° 0 mm 3 mps 765 mmHg 55%
    08:00 +13°C° 0 mm 3 mps 765 mmHg 54%
    09:00 +17°C° 0 mm 3 mps 765 mmHg 48%
    10:00 +19°C° 0 mm 3 mps 765 mmHg 42%
    11:00 +22°C° 0 mm 4 mps 765 mmHg 37%
    12:00 +24°C° 0 mm 3 mps 765 mmHg 34%
    13:00 +26°C° 0 mm 3 mps 764 mmHg 32%
    14:00 +27°C° 0 mm 3 mps 764 mmHg 30%
    15:00 +25°C° 0 mm 2 mps 764 mmHg 37%
    16:00 +23°C° 0 mm 1 mps 764 mmHg 44%
    17:00 +21°C° 0 mm 1 mps 764 mmHg 51%
    18:00 +20°C° 0 mm 1 mps 764 mmHg 50%
    19:00 +18°C° 0 mm 2 mps 764 mmHg 49%
    20:00 +17°C° 0 mm 3 mps 765 mmHg 48%
    21:00 +17°C° 0 mm 3 mps 765 mmHg 50%
    22:00 +16°C° 0 mm 3 mps 765 mmHg 51%
    23:00 +14°C° 0 mm 3 mps 765 mmHg 53%

    29 April, Saturday

    Time Temperature Precipitation Wind Pressure Humidity
    00:00 +14°C° 0 mm 3 mps 765 mmHg 54%
    01:00 +14°C° 0 mm 2 mps 765 mmHg 54%
    02:00 +14°C° 0 mm 2 mps 765 mmHg 55%
    03:00 +13°C° 0 mm 2 mps 765 mmHg 56%
    04:00 +13°C° 0 mm 2 mps 765 mmHg 56%
    05:00 +13°C° 0 mm 2 mps 765 mmHg 57%
    06:00 +14°C° 0 mm 2 mps 766 mmHg 55%
    07:00 +15°C° 0 mm 2 mps 766 mmHg 54%
    08:00 +15°C° 0 mm 2 mps 766 mmHg 52%
    09:00 +18°C° 0 mm 3 mps 766 mmHg 46%
    10:00 +21°C° 0 mm 3 mps 766 mmHg 40%
    11:00 +23°C° 0 mm 4 mps 766 mmHg 34%
    12:00 +25°C° 0 mm 4 mps 766 mmHg 32%
    13:00 +26°C° 0 mm 4 mps 765 mmHg 30%
    14:00 +27°C° 0 mm 4 mps 764 mmHg 28%
    15:00 +25°C° 0 mm 4 mps 764 mmHg 33%
    16:00 +24°C° 0 mm 3 mps 764 mmHg 39%
    17:00 +21°C° 0 mm 3 mps 764 mmHg 44%
    18:00 +20°C° 0 mm 3 mps 764 mmHg 47%
    19:00 +19°C° 0 mm 3 mps 764 mmHg 50%
    20:00 +17°C° 0 mm 3 mps 764 mmHg 54%
    21:00 +17°C° 0 mm 3 mps 764 mmHg 56%
    22:00 +16°C° 0 mm 3 mps 764 mmHg 59%
    23:00 +14°C° 0 mm 3 mps 765 mmHg 61%

    30 April, Sunday

    Time Temperature Precipitation Wind Pressure Humidity
    00:00 +14°C° 0 mm 3 mps 764 mmHg 64%
    01:00 +13°C° 0 mm 3 mps 764 mmHg 67%
    02:00 +13°C° 0 mm 3 mps 764 mmHg 70%
    03:00 +12°C° 0 mm 3 mps 764 mmHg 72%
    04:00 +12°C° 0 mm 3 mps 764 mmHg 74%
    05:00 +12°C° 0 mm 3 mps 764 mmHg 76%
    06:00 +12°C° 0 mm 3 mps 764 mmHg 73%
    07:00 +13°C° 0 mm 4 mps 765 mmHg 70%
    08:00 +14°C° 0 mm 4 mps 765 mmHg 67%
    09:00 +18°C° 0 mm 4 mps 765 mmHg 60%
    10:00 +20°C° 0 mm 4 mps 765 mmHg 52%
    11:00 +23°C° 0 mm 5 mps 765 mmHg 45%
    12:00 +25°C° 0 mm 4 mps 764 mmHg 41%
    13:00 +26°C° 0 mm 4 mps 763 mmHg 37%
    14:00 +27°C° 0 mm 4 mps 762 mmHg 33%
    15:00 +26°C° 0 mm 4 mps 762 mmHg 38%
    16:00 +24°C° 0 mm 3 mps 762 mmHg 43%
    17:00 +22°C° 0 mm 3 mps 762 mmHg 47%
    18:00 +21°C° 0 mm 3 mps 762 mmHg 50%
    19:00 +19°C° 0 mm 3 mps 762 mmHg 54%
    20:00 +18°C° 0 mm 3 mps 763 mmHg 57%
    21:00 +17°C° 0 mm 3 mps 763 mmHg 60%
    22:00 +17°C° 0 mm 3 mps 763 mmHg 63%
    23:00 +16°C° 0 mm 3 mps 763 mmHg 66%
    Show more